Liberia, Costa Rica

10:54 AM CST on March 25, 2017 (GMT -0600)
Liberia

Weather History for 78774 - February, 2014

Change the Weather History Date:

Monday, February 10, 2014

  Actual Average Record
Temperature  
Mean Temperature 84 °F -  
Max Temperature 94 °F 91 °F - ()
Min Temperature 73 °F 74 °F - ()
Cooling Degree Days 18    
Growing Degree Days 34 (Base 50)    
Moisture  
Dew Point 65 °F    
Average Humidity 49    
Maximum Humidity 73    
Minimum Humidity 31    
Precipitation  
Precipitation 0.00 in - - ()
Sea Level Pressure  
Sea Level Pressure 29.80 in    
Wind  
Wind Speed 15 mph ()    
Max Wind Speed 24 mph    
Max Gust Speed 32 mph    
Visibility 8.3 miles    
Events      
T = Trace of Precipitation, MM = Missing Value Source: Averaged Metar Reports

Daily Weather History Graph

Daily Weather History Graph

Search for Another Location

Airport or City:

Trip Planner

Search our weather history database for the weather conditions in past years. The results will help you decide how hot, cold, wet, or windy it might be!

Date:

Astronomy

Feb. 10, 2014 Rise Set
Actual Time 6:03 AM CST 5:49 PM CST
Civil Twilight 5:42 AM CST 6:10 PM CST
Nautical Twilight 5:17 AM CST 6:35 PM CST
Astronomical Twilight 4:52 AM CST 7:00 PM CST
Moon 2:33 PM CST (2/10) 2:39 AM CST (2/10)
Length of Visible Light 12h 28m
Length of Day
11h 45m
Waxing Gibbous, 85% of the Moon is Illuminated
Feb 10
Waxing Gibbous
Feb 14
Full
Feb 22
Last Quarter
Mar 1
New
Mar 8
First Quarter

Hourly Weather History & Observations

Time (CST) Temp. Heat Index Dew Point Humidity Pressure Visibility Wind Dir Wind Speed Gust Speed Precip Events Conditions
6:00 AM 80 °F - 66 °F 53% 29.83 in 12 mi East 15.0 mph - -   Scattered Clouds
6:00 AM 78.8 °F - 66.2 °F 65% 29.80 in 6.2 mi East 15.0 mph - N/A   Partly Cloudy
7:00 AM 80.6 °F 82.7 °F 66.2 °F 61% 29.82 in 6.2 mi East 12.7 mph - N/A   Partly Cloudy
8:00 AM 73.4 °F - 64.4 °F 73% 29.83 in - ENE 15.0 mph - N/A   Clear
9:00 AM 86 °F - 65 °F 41% 29.86 in 12 mi East 19.6 mph - -  
9:00 AM 86.0 °F 88.2 °F 66.2 °F 51% 29.83 in - East 19.6 mph 32.2 mph N/A   Clear
10:00 AM 87.8 °F 89.4 °F 64.4 °F 46% 29.84 in 6.2 mi East 20.7 mph 32.2 mph N/A   Partly Cloudy
11:00 AM 87.8 °F 89.4 °F 64.4 °F 46% 29.84 in 6.2 mi ENE 24.2 mph - N/A   Partly Cloudy
12:00 PM 91 °F - 64 °F 31% 29.85 in 12 mi ENE 20.7 mph - -   Scattered Clouds
12:00 PM 91.4 °F 93.2 °F 64.4 °F 41% 29.82 in 6.2 mi ENE 20.7 mph - N/A   Partly Cloudy
1:00 PM 91.4 °F 93.2 °F 64.4 °F 41% 29.79 in 6.2 mi East 18.4 mph - N/A   Partly Cloudy
2:00 PM 91.4 °F 93.2 °F 64.4 °F 41% 29.75 in 6.2 mi East 15.0 mph - N/A   Partly Cloudy
3:00 PM 91 °F - 65 °F 32% 29.78 in 12 mi ENE 18.4 mph - -   Scattered Clouds
3:00 PM 91.4 °F 93.2 °F 64.4 °F 41% 29.75 in 6.2 mi ENE 18.4 mph - N/A   Partly Cloudy
4:00 PM 89.6 °F 91.1 °F 64.4 °F 43% 29.74 in 6.2 mi ENE 16.1 mph - N/A   Partly Cloudy
5:00 PM 86.0 °F 87.3 °F 64.4 °F 48% 29.76 in - ENE 19.6 mph - N/A   Clear
6:00 PM 84 °F - 65 °F 43% 29.77 in 12 mi East 17.3 mph - -  
6:00 PM 84.2 °F 86.6 °F 66.2 °F 55% 29.77 in - ENE 15.0 mph - N/A   Clear
7:00 PM 82.4 °F 84.6 °F 66.2 °F 58% 29.80 in - ENE 6.9 mph - N/A   Clear
8:00 PM 80.6 °F 82.7 °F 66.2 °F 61% 29.82 in - ENE 15.0 mph - N/A   Clear